Weather in Asyut

Egypt     27°11′15″N   31°11′09″E
temp.,
°C
wind,
m/s
gust,
m/s
humid.,
%
clouds,
%
prec.,
mm/h
press.,
hPa
HPBL,
m
7 july, thu
thu723:00+31ne611183 0.0 1006221
02:00+29ne45190 0.0 100680
05:00+27ne23210 0.0 100721
08:00+32nnw23160 0.0 1007494
11:00+36nnw56140 0.0 10072480
14:00+38nnw77120 0.0 10062667
17:00+37nnw77100 0.0 10052755
20:00+33nne57125 0.0 1007111
8 july, fri
fri823:00+31n44120 0.0 100744
02:00+28n59325 0.0 1007214
05:00+25nw34448 0.0 100771
08:00+29nnw453844 0.0 1008627
11:00+35nw65235 0.0 10081666
14:00+38nnw661429 0.0 10052171
17:00+37nnw771559 0.0 10042344
20:00+33nne33219 0.0 100523
9 july, sat
sat923:00+32nnw611265 0.0 1006295
02:00+28n713425 0.0 1006367
05:00+26nnw48505 0.0 1006245
08:00+29nnw67380 0.0 1007736
11:00+36nnw66170 0.0 10061467
14:00+39nnw78120 0.0 10042206
17:00+39nnw89130 0.0 10032533
20:00+34n44180 0.0 100348
10 july, sun
sun1023:00+33n916200 0.0 1005523
02:00+29nne511295 0.0 1004255
05:00+27nne353410 0.0 100479
08:00+33n46225 0.0 1005649
11:00+38nnw68151 0.0 10042002
14:00+40nnw77135 0.0 10032802
17:00+39n77145 0.0 10023027
20:00+35nne510205 0.0 1003154
11 july, mon
mon1123:00+33nne34247 0.0 100437
02:00+30nne6103456 0.0 1004224
05:00+28n46445 0.0 1005131
08:00+32n56340 0.0 1006680
11:00+37nnw66210 0.0 10061946
14:00+39nw66160 0.0 10052465
17:00+38nnw66160 0.0 10042552
20:00+34n48210 0.0 1006138